AVA170 SKRG-SKCC

Flight info

Callsign AVA170
Flight time 0h 42m
Altitude 23000
Route DIPRA1C DIPRA W26 PIE W34 ESNUT ESNUT2K
Aircraft A320/M-SDE3FGHIRWY/LB1

Departure

Time 2026-04-28 03:25
Airport Jose Maria Córdova International Airport (SKRG)

Arrival

Time 2026-04-28 04:08
Airport Camilo Daza International Airport (SKCC)
Time Latitude Longitude Altitude Speed Heading
2026-04-28 02:50 6.17033 -75.42716 7020 ft 0 kts 308°
2026-04-28 03:13 6.17030 -75.42713 7023 ft 3 kts 309°
2026-04-28 03:13 6.17018 -75.42697 7020 ft 2 kts 297°
2026-04-28 03:14 6.17010 -75.42676 7020 ft 3 kts 278°
2026-04-28 03:14 6.17009 -75.42663 7020 ft 0 kts 277°
2026-04-28 03:18 6.17009 -75.42664 7020 ft 1 kts 276°
2026-04-28 03:18 6.17007 -75.42669 7019 ft 2 kts 263°
2026-04-28 03:18 6.17027 -75.42667 7020 ft 5 kts 22°
2026-04-28 03:18 6.17045 -75.42620 7018 ft 11 kts 104°
2026-04-28 03:19 6.16973 -75.42555 7015 ft 13 kts 149°
2026-04-28 03:19 6.16962 -75.42548 7013 ft 0 kts 148°
2026-04-28 03:19 6.16959 -75.42546 7013 ft 3 kts 148°
2026-04-28 03:19 6.16919 -75.42521 7015 ft 11 kts 149°
2026-04-28 03:20 6.16817 -75.42485 7003 ft 21 kts 182°
2026-04-28 03:20 6.16648 -75.42484 6995 ft 28 kts 178°
2026-04-28 03:20 6.16444 -75.42480 6986 ft 31 kts 179°
2026-04-28 03:20 6.16223 -75.42479 6979 ft 28 kts 178°
2026-04-28 03:21 6.16065 -75.42477 6976 ft 21 kts 180°
2026-04-28 03:21 6.15915 -75.42476 6975 ft 22 kts 180°
2026-04-28 03:21 6.15760 -75.42475 6975 ft 23 kts 179°
2026-04-28 03:21 6.15602 -75.42474 6976 ft 23 kts 180°
2026-04-28 03:22 6.15443 -75.42473 6976 ft 23 kts 179°
2026-04-28 03:22 6.15285 -75.42473 6977 ft 23 kts 180°
2026-04-28 03:22 6.15125 -75.42472 6976 ft 23 kts 179°
2026-04-28 03:22 6.14965 -75.42473 6977 ft 23 kts 180°
2026-04-28 03:23 6.14891 -75.42419 6976 ft 14 kts 85°
2026-04-28 03:23 6.14916 -75.42329 6976 ft 13 kts 51°
2026-04-28 03:23 6.14990 -75.42300 6978 ft 11 kts 357°
2026-04-28 03:23 6.15016 -75.42300 6978 ft 0 kts
2026-04-28 03:24 6.15098 -75.42300 6980 ft 40 kts 360°
2026-04-28 03:24 6.15620 -75.42304 6981 ft 107 kts 359°
2026-04-28 03:24 6.16554 -75.42311 6984 ft 159 kts 360°
2026-04-28 03:25 6.17767 -75.42310 7238 ft 185 kts 359°
2026-04-28 03:25 6.19064 -75.42302 7919 ft 188 kts 359°
2026-04-28 03:25 6.20426 -75.42303 8375 ft 207 kts
2026-04-28 03:25 6.21844 -75.41853 8736 ft 230 kts 38°
2026-04-28 03:26 6.22748 -75.40477 9078 ft 251 kts 77°
2026-04-28 03:26 6.22883 -75.38655 9533 ft 271 kts 88°
2026-04-28 03:26 6.23237 -75.36787 10254 ft 277 kts 65°
2026-04-28 03:26 6.24186 -75.35037 10607 ft 297 kts 61°
2026-04-28 03:27 6.25164 -75.33120 10834 ft 320 kts 63°
2026-04-28 03:27 6.26163 -75.31031 11068 ft 342 kts 64°
2026-04-28 03:27 6.27194 -75.28832 11566 ft 353 kts 64°
2026-04-28 03:27 6.28249 -75.26585 12220 ft 358 kts 64°
2026-04-28 03:28 6.29327 -75.24313 12913 ft 361 kts 64°
2026-04-28 03:28 6.30407 -75.22019 13592 ft 365 kts 64°
2026-04-28 03:28 6.31480 -75.19701 14247 ft 368 kts 65°
2026-04-28 03:28 6.32560 -75.17347 14885 ft 372 kts 65°
2026-04-28 03:29 6.33636 -75.14991 15523 ft 375 kts 65°
2026-04-28 03:29 6.34731 -75.12596 16140 ft 378 kts 65°
2026-04-28 03:29 6.35836 -75.10184 16755 ft 381 kts 65°
2026-04-28 03:29 6.36952 -75.07754 17381 ft 384 kts 65°
2026-04-28 03:30 6.38075 -75.05313 17975 ft 387 kts 65°
2026-04-28 03:30 6.39209 -75.02845 18548 ft 390 kts 65°
2026-04-28 03:30 6.40354 -75.00358 19122 ft 393 kts 65°
2026-04-28 03:30 6.41509 -74.97854 19665 ft 396 kts 65°
2026-04-28 03:31 6.42674 -74.95328 20201 ft 399 kts 65°
2026-04-28 03:31 6.43845 -74.92787 20728 ft 402 kts 65°
2026-04-28 03:31 6.45023 -74.90227 21229 ft 405 kts 65°
2026-04-28 03:31 6.46208 -74.87647 21723 ft 408 kts 65°
2026-04-28 03:32 6.47400 -74.85053 22188 ft 411 kts 65°
2026-04-28 03:32 6.48590 -74.82467 22677 ft 413 kts 65°
2026-04-28 03:32 6.49802 -74.79837 22945 ft 415 kts 65°
2026-04-28 03:32 6.51008 -74.77226 23005 ft 411 kts 65°
2026-04-28 03:33 6.52189 -74.74660 23009 ft 409 kts 65°
2026-04-28 03:33 6.53381 -74.72061 23008 ft 408 kts 65°
2026-04-28 03:33 6.54570 -74.69472 23010 ft 408 kts 65°
2026-04-28 03:33 6.55757 -74.66890 23008 ft 407 kts 65°
2026-04-28 03:34 6.56945 -74.64304 23010 ft 407 kts 65°
2026-04-28 03:34 6.58130 -74.61725 23008 ft 406 kts 65°
2026-04-28 03:34 6.59311 -74.59150 23009 ft 405 kts 65°
2026-04-28 03:34 6.60491 -74.56575 23009 ft 406 kts 65°
2026-04-28 03:35 6.61686 -74.54002 23011 ft 406 kts 63°
2026-04-28 03:35 6.62982 -74.51479 23011 ft 406 kts 61°
2026-04-28 03:35 6.64365 -74.49003 23014 ft 406 kts 59°
2026-04-28 03:35 6.65787 -74.46561 23016 ft 405 kts 59°
2026-04-28 03:36 6.67222 -74.44114 23027 ft 405 kts 59°
2026-04-28 03:36 6.68640 -74.41674 23023 ft 405 kts 59°
2026-04-28 03:36 6.70042 -74.39220 23017 ft 404 kts 60°
2026-04-28 03:36 6.71430 -74.36760 23017 ft 404 kts 60°
2026-04-28 03:37 6.72811 -74.34290 23016 ft 404 kts 60°
2026-04-28 03:37 6.74187 -74.31826 23017 ft 404 kts 60°
2026-04-28 03:37 6.75559 -74.29365 23016 ft 404 kts 60°
2026-04-28 03:37 6.76933 -74.26904 23015 ft 403 kts 60°
2026-04-28 03:38 6.78311 -74.24447 23012 ft 403 kts 60°
2026-04-28 03:38 6.79688 -74.21990 23012 ft 403 kts 60°
2026-04-28 03:38 6.81063 -74.19533 23009 ft 403 kts 60°
2026-04-28 03:38 6.82439 -74.17076 23009 ft 403 kts 60°
2026-04-28 03:39 6.83813 -74.14619 23007 ft 403 kts 60°
2026-04-28 03:39 6.85185 -74.12162 23007 ft 403 kts 60°
2026-04-28 03:39 6.86556 -74.09706 23004 ft 402 kts 60°
2026-04-28 03:39 6.87929 -74.07252 23003 ft 402 kts 60°
2026-04-28 03:40 6.89303 -74.04797 23001 ft 402 kts 60°
2026-04-28 03:40 6.90674 -74.02348 23001 ft 402 kts 60°
2026-04-28 03:40 6.92049 -73.99892 23000 ft 402 kts 60°
2026-04-28 03:40 6.93423 -73.97440 22999 ft 402 kts 60°
2026-04-28 03:41 6.94794 -73.94994 22998 ft 402 kts 60°
2026-04-28 03:41 6.96171 -73.92537 22997 ft 402 kts 60°
2026-04-28 03:41 6.97540 -73.90087 22997 ft 402 kts 60°
2026-04-28 03:41 6.98894 -73.87663 22998 ft 402 kts 60°
2026-04-28 03:42 7.00278 -73.85178 22997 ft 402 kts 62°
2026-04-28 03:42 7.01376 -73.82591 22998 ft 402 kts 72°
2026-04-28 03:42 7.01961 -73.79842 22997 ft 402 kts 84°
2026-04-28 03:42 7.02021 -73.77062 22996 ft 402 kts 95°
2026-04-28 03:43 7.01588 -73.74280 22996 ft 402 kts 102°
2026-04-28 03:43 7.01028 -73.71522 22996 ft 403 kts 102°
2026-04-28 03:43 7.00470 -73.68762 22998 ft 403 kts 102°
2026-04-28 03:43 6.99912 -73.65996 23000 ft 403 kts 102°
2026-04-28 03:44 6.99355 -73.63232 23001 ft 403 kts 101°
2026-04-28 03:44 6.98800 -73.60467 23000 ft 403 kts 101°
2026-04-28 03:44 6.98240 -73.57695 23002 ft 403 kts 102°
2026-04-28 03:44 6.97682 -73.54935 23003 ft 403 kts 102°
2026-04-28 03:45 6.97121 -73.52170 23002 ft 403 kts 102°
2026-04-28 03:45 6.96559 -73.49400 22996 ft 404 kts 102°
2026-04-28 03:45 6.95995 -73.46629 22991 ft 404 kts 102°
2026-04-28 03:45 6.95429 -73.43859 22986 ft 405 kts 102°
2026-04-28 03:46 6.94861 -73.41075 22989 ft 406 kts 102°
2026-04-28 03:46 6.94294 -73.38293 22995 ft 406 kts 102°
2026-04-28 03:46 6.93730 -73.35511 22993 ft 406 kts 102°
2026-04-28 03:46 6.93169 -73.32729 22992 ft 406 kts 102°
2026-04-28 03:47 6.92606 -73.29940 22989 ft 408 kts 102°
2026-04-28 03:47 6.92036 -73.27124 23011 ft 411 kts 102°
2026-04-28 03:47 6.91462 -73.24305 23008 ft 410 kts 102°
2026-04-28 03:47 6.90890 -73.21505 23010 ft 407 kts 102°
2026-04-28 03:48 6.90321 -73.18719 23009 ft 405 kts 102°
2026-04-28 03:48 6.89826 -73.15927 23008 ft 406 kts 95°
2026-04-28 03:48 6.89933 -73.13098 23010 ft 405 kts 79°
2026-04-28 03:48 6.90761 -73.10397 23009 ft 405 kts 64°
2026-04-28 03:49 6.92251 -73.07994 23008 ft 406 kts 49°
2026-04-28 03:49 6.94301 -73.06055 23001 ft 405 kts 34°
2026-04-28 03:49 6.96724 -73.04626 22999 ft 405 kts 27°
2026-04-28 03:49 6.99200 -73.03275 22999 ft 405 kts 28°
2026-04-28 03:50 7.01677 -73.01923 22992 ft 405 kts 28°
2026-04-28 03:50 7.04159 -73.00568 22988 ft 407 kts 28°
2026-04-28 03:50 7.06664 -72.99196 23009 ft 411 kts 28°
2026-04-28 03:50 7.09175 -72.97818 23008 ft 413 kts 28°
2026-04-28 03:51 7.11703 -72.96431 23010 ft 415 kts 28°
2026-04-28 03:51 7.14242 -72.95040 23009 ft 416 kts 28°
2026-04-28 03:51 7.16791 -72.93643 23009 ft 417 kts 28°
2026-04-28 03:51 7.19333 -72.92250 22879 ft 412 kts 28°
2026-04-28 03:52 7.20980 -72.91346 22720 ft 405 kts 28°
2026-04-28 03:52 7.24246 -72.89555 22383 ft 398 kts 28°
2026-04-28 03:52 7.25853 -72.88675 22201 ft 395 kts 28°
2026-04-28 03:52 7.28256 -72.87359 21752 ft 392 kts 28°
2026-04-28 03:53 7.30648 -72.86044 21252 ft 390 kts 28°
2026-04-28 03:53 7.33021 -72.84738 20754 ft 388 kts 28°
2026-04-28 03:53 7.35385 -72.83438 20245 ft 387 kts 28°
2026-04-28 03:53 7.37744 -72.82143 19732 ft 385 kts 28°
2026-04-28 03:54 7.40099 -72.80853 19228 ft 384 kts 28°
2026-04-28 03:54 7.42437 -72.79569 18725 ft 382 kts 28°
2026-04-28 03:54 7.44762 -72.78291 18222 ft 380 kts 28°
2026-04-28 03:54 7.47079 -72.77017 17728 ft 378 kts 28°
2026-04-28 03:55 7.49377 -72.75769 17230 ft 376 kts 25°
2026-04-28 03:55 7.51829 -72.74873 16828 ft 370 kts 12°
2026-04-28 03:55 7.54316 -72.74366 16604 ft 361 kts 11°
2026-04-28 03:55 7.56761 -72.73865 16215 ft 357 kts 11°
2026-04-28 03:56 7.59189 -72.73359 15815 ft 354 kts 11°
2026-04-28 03:56 7.61586 -72.72854 15437 ft 351 kts 11°
2026-04-28 03:56 7.63967 -72.72353 15014 ft 349 kts 11°
2026-04-28 03:56 7.66331 -72.71858 14689 ft 341 kts 11°
2026-04-28 03:57 7.68581 -72.71389 14563 ft 320 kts 11°
2026-04-28 03:57 7.70695 -72.70948 14378 ft 302 kts 11°
2026-04-28 03:57 7.72716 -72.70527 13980 ft 294 kts 11°
2026-04-28 03:57 7.74687 -72.70018 13490 ft 291 kts 20°
2026-04-28 03:58 7.76468 -72.69077 12973 ft 289 kts 35°
2026-04-28 03:58 7.77955 -72.67739 12449 ft 286 kts 46°
2026-04-28 03:58 7.79314 -72.66281 11913 ft 284 kts 46°
2026-04-28 03:58 7.80666 -72.64835 11379 ft 282 kts 46°
2026-04-28 03:59 7.82009 -72.63406 10848 ft 280 kts 46°
2026-04-28 03:59 7.83339 -72.61994 10322 ft 277 kts 46°
2026-04-28 03:59 7.84659 -72.60591 9860 ft 272 kts 46°
2026-04-28 03:59 7.85957 -72.59212 9491 ft 272 kts 46°
2026-04-28 04:00 7.87256 -72.57831 9118 ft 272 kts 46°
2026-04-28 04:00 7.88561 -72.56446 8754 ft 272 kts 46°
2026-04-28 04:00 7.89858 -72.55092 8384 ft 271 kts 41°
2026-04-28 04:00 7.91477 -72.54189 8017 ft 267 kts 11°
2026-04-28 04:01 7.93296 -72.54239 7657 ft 262 kts 341°
2026-04-28 04:01 7.94824 -72.55180 7266 ft 259 kts 311°
2026-04-28 04:01 7.95739 -72.56715 6889 ft 257 kts 293°
2026-04-28 04:01 7.96467 -72.58363 6510 ft 256 kts 293°
2026-04-28 04:02 7.97185 -72.60005 6132 ft 255 kts 293°
2026-04-28 04:02 7.97895 -72.61626 5753 ft 248 kts 293°
2026-04-28 04:02 7.98698 -72.63109 5444 ft 235 kts 310°
2026-04-28 04:02 7.99946 -72.64103 5191 ft 226 kts 334°
2026-04-28 04:03 8.01436 -72.64467 4921 ft 218 kts 359°
2026-04-28 04:03 8.02895 -72.64197 4663 ft 211 kts 22°
2026-04-28 04:03 8.04088 -72.63415 4424 ft 200 kts 44°
2026-04-28 04:03 8.04866 -72.62287 4159 ft 196 kts 66°
2026-04-28 04:04 8.05169 -72.60967 3897 ft 193 kts 89°
2026-04-28 04:04 8.04981 -72.59647 3656 ft 189 kts 109°
2026-04-28 04:04 8.04362 -72.58501 3420 ft 185 kts 130°
2026-04-28 04:04 8.03413 -72.57657 3184 ft 180 kts 149°
2026-04-28 04:05 8.02374 -72.57015 2966 ft 170 kts 150°
2026-04-28 04:05 8.01410 -72.56428 2771 ft 156 kts 150°
2026-04-28 04:05 8.00505 -72.55879 2568 ft 149 kts 151°
2026-04-28 04:05 7.99621 -72.55345 2397 ft 148 kts 151°
2026-04-28 04:06 7.98740 -72.54810 2205 ft 147 kts 150°
2026-04-28 04:06 7.97864 -72.54277 2013 ft 146 kts 150°
2026-04-28 04:06 7.96992 -72.53747 1818 ft 146 kts 151°
2026-04-28 04:06 7.96125 -72.53219 1635 ft 145 kts 150°
2026-04-28 04:07 7.95263 -72.52692 1445 ft 144 kts 150°
2026-04-28 04:07 7.94408 -72.52174 1229 ft 143 kts 150°
2026-04-28 04:07 7.93562 -72.51662 1072 ft 137 kts 149°
2026-04-28 04:07 7.92881 -72.51248 1033 ft 86 kts 149°
2026-04-28 04:08 7.92618 -72.51087 1029 ft 32 kts 146°
2026-04-28 04:08 7.92424 -72.50975 1024 ft 33 kts 155°
2026-04-28 04:08 7.92278 -72.50893 1023 ft 18 kts 132°
2026-04-28 04:08 7.92287 -72.50882 1019 ft 3 kts 312°
2026-04-28 04:09 7.92306 -72.50899 1023 ft 4 kts 323°
2026-04-28 04:09 7.92347 -72.50924 1023 ft 10 kts 328°
2026-04-28 04:09 7.92399 -72.50956 1023 ft 7 kts 329°
2026-04-28 04:09 7.92434 -72.50977 1024 ft 6 kts 329°
2026-04-28 04:10 7.92481 -72.51004 1025 ft 9 kts 331°
2026-04-28 04:10 7.92544 -72.51041 1028 ft 12 kts 329°
2026-04-28 04:10 7.92638 -72.51048 1028 ft 16 kts 16°
2026-04-28 04:10 7.92758 -72.51016 1031 ft 19 kts 14°
2026-04-28 04:11 7.92815 -72.50939 1032 ft 13 kts 59°
2026-04-28 04:11 7.92872 -72.50885 1032 ft 9 kts 68°
2026-04-28 04:11 7.92857 -72.50832 1032 ft 7 kts 118°
2026-04-28 04:11 7.92827 -72.50819 1032 ft 4 kts 194°
2026-04-28 04:12 7.92807 -72.50828 1032 ft 3 kts 206°
2026-04-28 04:12 7.92795 -72.50834 1032 ft 2 kts 206°
2026-04-28 04:12 7.92788 -72.50837 1032 ft 1 kts 206°
2026-04-28 04:12 7.92788 -72.50838 1032 ft 0 kts 206°